Home > Weather > Oxford > Past weeks

Flag for United Kingdom Past Weather in Oxford, England, United Kingdom — Yesterday and Last 2 Weeks

Now
57 °F

Passing clouds.


Feels Like: 55 °F
Forecast: 55 / 65 °F
Wind: 9 mph from West

Location: Benson

Current Time: Jun 29, 2016 at 1:12:36 AM

Latest Report: Jun 28, 2016 at 11:50 PM


Visibility: N/A

Pressure: 29.77 "Hg

Humidity: 88%

Dew Point: 54 °F

Location of OxfordLocation

Past Weather in Oxford — Graph

°F

Oxford Temperature Yesterday

Maximum temperature yesterday: 66 °F (at 11:50 AM)
Minimum temperature yesterday: 43 °F (at 3:50 AM)
Average temperature yesterday: 56 °F

High & Low Weather Summary for the Past Weeks

 TemperatureHumidityPressure
High70 °F (Jun 16, 2:50 PM)100% (Jun 14, 3:50 AM)30.24 "Hg (Jun 14, 3:50 AM)
Low43 °F (Jun 28, 3:50 AM)49% (Jun 27, 5:50 PM)29.36 "Hg (Jun 14, 4:50 PM)
Average59 °F84%29.89 "Hg
* Reported Jun 13 10:50 PM — Jun 28 10:50 PM, Oxford, Weather by CustomWeather, © 2016

Note: Actual official high and low records may vary slightly from our data, if they occured in-between our weather recording intervals... More about our weather records

Advertising

Oxford Weather History for the Previous 24 Hours

Scroll right to see more
 ConditionsComfort  
Time TempWeatherWind HumidityBarometerVisibility
10:50 PM
Tue, Jun 28
55 °FPartly cloudy.7 mph94%29.74 "HgN/A
9:50 PM55 °FPartly sunny.12 mph94%29.71 "HgN/A
8:50 PM55 °FDrizzle. Partly sunny.13 mph94%29.68 "HgN/A
7:50 PM55 °FPartly sunny.16 mph94%29.71 "HgN/A
6:50 PM55 °FBroken clouds.15 mph94%29.74 "HgN/A
5:50 PM57 °FDrizzle. Broken clouds.15 mph88%29.80 "HgN/A
4:50 PM57 °FLight rain. Partly sunny.13 mph88%29.83 "HgN/A
3:50 PM57 °FRain. Overcast.15 mph63%29.86 "HgN/A
2:50 PM64 °FPartly sunny.14 mph52%29.89 "HgN/A
1:50 PM66 °FScattered clouds.14 mph56%29.89 "HgN/A
12:50 PM66 °FScattered clouds.14 mph52%29.92 "HgN/A
11:50 AM66 °FPartly sunny.10 mph52%29.95 "HgN/A
10:50 AM63 °FPartly sunny.9 mph56%29.98 "HgN/A
9:50 AM63 °FPartly sunny.8 mph59%30.01 "HgN/A
8:50 AM61 °FPartly sunny.5 mph68%30.01 "HgN/A
7:50 AM57 °FSunny.3 mph77%30.04 "Hg10 mi
6:50 AM52 °FSunny.1 mph94%30.07 "Hg10 mi
5:50 AM46 °FFog.1 mph93%30.07 "HgN/A
4:50 AM43 °FFog.No wind100%30.07 "HgN/A
3:50 AM43 °FClear.3 mph100%30.07 "Hg10 mi
2:50 AM45 °FClear.2 mph93%30.09 "HgN/A
1:50 AM46 °FPassing clouds.2 mph93%30.09 "HgN/A
Weather by CustomWeather, © 2016

See weather overviewHow to use our weather pages